Theta_e
288 288 288 288 289 290 290 290 290 290 291 291 291 291 292 293 294 295 295 296 296 299 301 304 305 308 307 314 310 308 306 305 295 283 286 286 286 288 289 290 292 293 294
287 287 286 287 289 289 289 290 290 290 291 291 291 291 292 292 293 294 294 296 297 299 300 301 304 308 307 311 310 309 307 302 293 283 284 285 285 286 286 285 286 287 289
285 285 285 286 287 287 287 288 289 289 289 289 290 289 290 290 291 292 293 294 296 298 299 300 301 305 306 307 310 310 308 296 292 284 282 286 284 285 284 284 284 285 287
285 284 284 284 284 285 285 286 286 287 287 287 288 288 288 289 289 290 291 292 293 295 297 298 300 305 305 309 310 309 295 291 288 285 284 282 283 284 283 281 280 282 281
283 283 283 283 283 283 284 284 285 285 286 286 286 286 287 287 287 288 289 290 291 293 295 296 298 301 299 305 310 299 294 289 286 284 282 282 281 280 280 281 279 278 278
282 282 282 282 282 282 283 284 284 284 284 284 284 284 285 285 287 288 288 288 289 290 288 288 290 292 296 299 300 297 295 288 285 283 282 280 280 282 280 278 276 276 273
282 282 282 281 281 282 283 283 283 283 283 282 283 283 283 285 288 288 288 286 285 285 285 286 285 289 292 289 290 292 292 293 290 287 282 281 281 280 279 277 277 276 275
281 282 282 281 281 282 282 282 282 282 282 282 282 283 283 284 286 286 285 284 284 284 285 284 284 285 286 284 282 282 283 283 285 285 284 283 281 281 280 279 275 275 275
281 281 281 281 281 282 281 281 282 281 281 282 282 282 283 284 286 286 283 281 281 281 282 284 284 283 285 285 282 281 281 282 285 286 286 285 284 282 279 277 274 273 271
280 280 281 280 281 281 281 281 281 282 281 281 282 283 283 283 286 286 284 282 280 280 281 281 282 282 284 283 278 275 273 274 275 275 277 280 282 282 281 278 276 273 270
277 278 279 281 281 281 280 281 282 281 281 281 281 282 283 283 284 286 285 281 280 279 280 280 282 284 283 282 280 276 275 276 276 273 273 273 273 273 272 273 274 274 270
275 276 277 280 282 282 279 280 282 281 280 280 280 280 280 280 284 285 285 284 282 278 278 279 280 282 282 281 279 280 279 275 273 272 271 270 269 269 269 270 270 270 271
272 274 276 282 282 282 281 281 280 281 280 279 279 278 278 278 278 280 282 282 282 279 279 280 280 280 279 278 278 276 274 272 271 269 268 267 268 268 268 268 268 268 268
270 271 274 279 282 283 284 283 282 280 279 279 279 278 278 278 278 277 277 276 277 277 277 276 277 276 276 274 272 272 272 271 270 268 267 268 268 268 267 268 266 266 264
272 269 270 272 280 281 282 284 282 283 283 279 279 279 278 277 278 279 277 275 275 275 274 274 272 272 270 270 270 270 270 269 268 268 267 267 267 267 266 267 266 265 263
279 273 272 272 278 280 279 281 286 285 285 285 284 282 281 282 281 281 280 279 278 277 273 271 270 270 269 269 268 268 268 268 267 267 267 266 266 265 264 264 265 263 261
275 277 275 272 272 278 279 279 278 281 285 285 284 283 283 282 281 281 280 279 278 275 271 270 269 269 268 268 268 267 266 266 267 266 265 265 265 264 263 263 263 262 261
280 280 277 272 269 268 276 278 277 278 277 278 283 282 283 282 282 281 279 275 270 271 269 268 267 267 267 266 266 265 265 265 265 265 264 264 264 263 262 261 261 260 258
275 278 276 275 266 267 266 275 274 276 278 278 280 281 280 282 281 279 276 266 265 265 265 265 265 265 265 265 265 265 265 264 264 263 262 262 262 261 260 259 259 258 256
281 277 272 270 266 264 264 270 266 274 277 278 277 278 277 275 268 264 264 262 263 263 263 265 263 264 264 263 263 264 263 263 262 262 261 261 260 261 259 257 258 256 254
281 276 269 267 267 267 267 269 269 269 273 276 274 268 276 266 263 262 262 262 263 263 263 265 264 264 263 262 262 262 262 262 261 261 260 260 259 257 257 257 255 253 253
279 274 270 271 269 267 267 267 267 268 267 268 268 265 282 270 265 265 264 264 264 264 264 264 263 263 263 263 262 260 260 260 259 259 259 258 257 257 255 255 254 251 250
278 275 272 266 270 267 267 266 266 267 268 267 267 269 268 268 265 265 266 263 260 259 259 261 262 260 259 259 260 262 262 261 260 260 259 258 257 256 255 253 252 249 248
277 275 274 272 269 269 269 269 269 267 268 267 265 267 268 266 269 269 268 266 267 269 264 261 262 262 262 260 259 257 258 259 260 260 259 258 256 254 254 252 251 247 248
275 275 274 271 271 271 269 268 268 268 268 268 269 268 267 266 266 266 265 268 267 267 268 262 259 261 261 259 259 258 259 262 259 259 258 257 255 253 254 253 248 245 244
279 278 275 273 272 271 271 270 270 270 270 270 270 269 270 269 268 267 266 266 266 264 268 264 260 260 260 260 258 259 261 261 259 258 258 257 256 253 253 252 249 247 245
Wind_Speed
10 11 11 12 13 13 12 12 13 14 16 18 20 19 19 18 17 16 17 19 18 18 17 18 16 16 12 14 13 14 12 12 12 4 3 10 9 13 10 10 9 10 10
11 13 13 13 13 14 14 15 15 15 15 18 19 20 19 19 18 18 18 16 17 19 17 17 20 13 15 14 14 19 15 12 12 16 12 10 12 13 13 14 9 9 9
13 15 14 15 16 17 17 17 17 16 15 16 18 19 20 19 19 18 17 18 18 20 17 17 17 19 15 12 16 17 14 11 14 14 13 10 9 12 14 12 13 10 8
14 15 15 15 17 17 16 17 17 16 17 17 17 19 19 19 19 18 17 18 18 19 18 17 19 21 15 18 18 18 15 15 15 15 16 15 13 12 12 14 11 8 8
13 13 13 14 17 16 16 16 16 16 15 15 17 17 17 16 15 17 17 18 17 19 19 17 17 18 17 14 16 16 20 14 15 16 16 15 14 15 16 10 13 9 6
12 13 14 16 17 17 16 16 16 15 14 14 14 15 17 13 25 29 25 17 16 16 14 11 15 22 19 22 16 32 28 23 20 18 14 20 18 14 11 14 14 12 6
12 12 13 15 15 16 16 15 14 15 15 14 14 13 13 10 16 10 5 3 5 3 4 4 3 6 17 20 25 23 15 23 34 27 26 21 23 18 18 16 14 11 7
11 11 12 14 13 13 13 13 14 13 14 13 13 14 11 9 20 20 14 10 11 10 8 9 14 18 20 26 25 25 22 18 15 12 16 21 18 18 17 16 14 13 11
11 11 12 15 13 13 13 12 12 13 12 12 12 13 12 13 20 20 15 14 17 17 15 16 20 25 35 39 29 31 28 25 32 37 35 36 37 31 25 14 13 14 8
10 10 10 13 11 13 13 12 12 11 11 9 10 14 18 17 28 25 17 10 15 13 17 23 35 26 37 38 28 27 27 21 21 22 20 26 24 22 20 10 11 11 9
7 7 8 11 11 11 10 8 10 11 10 9 11 15 20 22 26 31 27 12 11 13 16 16 18 39 40 40 35 23 26 21 27 20 16 13 12 12 10 8 7 7 5
5 5 7 9 9 9 9 9 10 11 10 10 11 13 14 18 33 34 34 29 24 17 17 16 21 37 37 38 28 36 36 25 14 14 13 11 10 10 9 10 12 11 10
3 4 6 6 10 9 10 11 8 10 8 9 9 9 11 12 13 30 33 32 30 20 17 28 34 35 37 29 32 29 21 13 13 14 12 11 9 9 12 12 13 15 15
2 3 4 5 8 10 7 7 8 8 8 7 8 9 8 10 11 10 11 10 18 15 19 16 25 27 27 20 15 14 11 11 12 12 12 10 9 8 9 7 9 8 9
2 1 3 2 4 5 6 7 7 7 7 4 6 7 7 9 10 15 12 7 7 11 9 9 11 11 11 11 11 11 10 11 12 11 10 9 9 8 8 6 4 4 7
4 2 1 1 1 2 3 4 13 11 15 16 15 10 8 15 16 17 17 16 15 11 7 9 9 8 10 9 9 10 9 11 10 9 9 8 8 8 7 6 7 8 9
5 4 2 1 1 2 1 2 2 6 13 13 12 13 13 12 13 12 13 15 16 10 8 7 7 7 8 8 8 7 9 8 8 8 8 8 7 8 8 7 7 8 7
8 8 4 3 3 2 3 3 1 2 3 4 7 6 9 10 10 9 9 7 7 8 5 5 5 6 6 7 6 7 7 8 7 7 8 7 7 7 7 6 6 7 6
7 6 6 4 3 4 2 2 2 3 3 3 3 4 3 9 9 10 12 4 3 4 3 5 4 5 5 5 6 6 8 6 7 7 6 7 7 7 7 6 7 7 6
8 10 7 5 4 3 3 3 2 4 4 5 5 5 1 2 4 4 3 2 2 3 2 4 4 4 5 5 5 6 6 6 7 6 6 6 6 6 8 7 6 7 3
9 7 7 4 5 5 4 5 4 5 5 5 4 3 6 3 3 3 2 3 4 4 4 5 5 5 4 4 4 3 4 5 5 6 6 6 6 6 5 6 6 5 6
8 7 6 7 5 5 5 4 5 5 5 4 4 3 13 3 5 5 5 4 4 3 2 3 3 4 5 6 6 5 5 6 5 6 6 6 6 6 5 6 6 4 4
8 8 6 3 5 6 5 5 5 5 5 5 4 4 3 3 4 4 4 4 3 3 3 3 4 4 3 3 3 5 7 7 7 8 9 7 7 6 6 6 7 5 3
9 9 9 7 5 5 5 6 6 6 5 4 3 4 3 3 4 5 4 3 3 4 4 4 5 7 6 5 4 3 4 4 7 8 10 9 7 7 6 6 5 4 4
8 8 8 8 8 8 5 4 5 5 5 6 6 5 5 4 3 3 3 4 5 5 5 4 3 7 9 9 8 9 8 11 8 10 7 8 10 9 7 6 4 3 3
8 8 7 6 7 7 6 6 7 6 6 5 4 3 4 4 4 4 4 4 4 3 6 5 6 8 9 7 7 8 10 12 11 11 9 9 10 7 7 7 7 4 4
Wind_Direction
294 297 297 304 296 290 289 288 290 292 291 291 288 285 277 272 268 265 263 266 263 263 257 260 251 246 252 217 180 177 173 165 143 99 100 137 126 122 112 97 94 105 105
307 308 305 300 300 295 293 293 293 290 288 288 286 281 275 271 269 264 261 257 256 260 253 272 242 241 232 252 185 174 173 149 136 139 138 148 136 127 115 102 98 91 102
315 314 314 314 316 310 306 304 300 296 291 290 288 283 279 275 271 265 259 255 252 252 251 255 264 249 234 246 195 172 163 135 140 140 133 141 131 133 117 111 112 103 102
316 323 321 321 317 312 307 306 303 299 298 297 292 285 281 279 274 268 262 259 253 252 247 248 255 246 229 244 184 168 139 129 131 128 137 139 140 139 124 127 116 107 99
321 321 323 319 317 312 309 307 303 300 299 299 295 289 284 277 274 269 258 255 251 252 258 254 249 249 224 242 176 149 143 133 135 134 138 143 147 149 151 138 124 118 72
324 322 324 325 322 319 316 315 311 313 312 314 310 302 296 288 286 277 266 256 253 253 248 253 239 234 227 220 193 157 152 142 144 143 146 154 156 147 141 135 131 134 131
324 323 328 326 321 329 332 322 324 330 329 329 320 316 312 317 341 312 268 189 139 186 193 185 136 113 125 101 88 94 116 147 151 154 150 159 151 146 132 129 134 116 115
322 330 330 321 324 335 332 334 337 336 333 336 331 331 337 0 21 29 51 67 69 64 73 92 95 103 108 102 94 87 81 80 91 101 124 125 120 123 115 116 111 101 95
335 338 334 328 329 337 337 344 348 338 339 342 348 350 11 23 33 40 51 61 65 62 63 75 89 91 95 100 96 96 92 89 88 94 98 106 110 109 114 112 125 124 121
329 329 331 330 335 345 343 353 356 342 340 342 5 27 33 34 36 39 42 53 67 70 73 74 75 84 89 95 98 98 88 88 92 85 84 83 89 108 102 107 142 135 120
306 315 339 336 346 350 337 349 355 346 338 348 26 32 36 34 38 43 47 48 58 67 65 67 74 78 84 86 88 89 97 103 91 86 86 83 83 80 80 78 82 129 126
306 334 341 346 354 359 346 351 3 353 352 9 27 37 33 30 40 43 48 53 55 63 65 67 71 80 82 84 86 94 96 94 94 98 97 92 95 90 90 87 82 77 66
325 6 348 5 2 14 19 6 5 4 8 15 28 35 40 32 36 35 41 47 53 63 66 77 79 79 78 77 85 91 91 95 101 97 96 94 95 101 97 87 82 83 74
342 18 358 5 5 31 33 17 21 19 6 15 28 38 46 47 37 29 25 22 39 52 64 70 80 80 80 80 74 68 76 87 96 101 101 101 100 95 92 97 99 95 83
239 46 8 23 17 348 26 41 33 22 35 11 25 39 42 55 57 67 68 56 56 66 64 66 66 70 72 70 73 69 77 81 88 93 95 99 93 92 89 91 82 76 88
201 203 130 49 19 4 339 30 49 48 47 54 60 64 72 81 77 79 74 71 73 75 63 61 64 69 78 78 75 78 67 75 79 91 96 105 105 101 95 79 77 80 88
188 194 160 159 190 161 54 10 32 32 52 59 71 80 85 95 89 88 79 77 71 67 72 63 67 65 69 73 80 79 85 75 91 90 88 89 95 92 97 97 96 103 94
199 207 178 181 184 188 176 166 116 28 61 54 69 74 83 79 74 67 68 58 54 43 45 72 78 73 72 82 84 99 98 85 88 96 102 105 105 115 113 107 101 109 105
187 201 192 186 187 183 181 221 171 175 148 136 127 104 88 104 67 46 43 59 88 79 76 89 89 98 102 103 101 92 100 121 126 120 118 122 119 123 114 115 116 117 122
194 208 191 169 159 173 164 173 175 189 186 185 182 181 173 35 29 359 27 68 82 94 90 106 103 102 109 116 118 124 120 129 121 119 124 121 120 128 129 125 124 127 104
194 196 187 163 166 180 182 190 187 182 190 203 214 207 195 134 177 181 182 156 153 150 159 154 150 129 106 94 91 104 120 125 118 122 130 134 133 115 111 117 117 121 127
188 186 180 199 172 174 190 187 188 189 194 205 233 250 211 170 177 178 183 186 192 179 144 130 122 128 143 153 145 141 150 148 132 124 128 127 119 129 131 131 122 110 101
186 177 184 188 201 161 170 187 189 198 204 213 209 211 221 189 197 196 196 191 165 152 144 127 125 120 103 121 129 154 162 172 162 147 144 140 136 136 131 129 128 110 112
184 182 184 189 186 198 180 191 206 203 199 200 195 225 226 213 195 195 193 165 149 153 154 153 153 155 154 159 158 142 118 142 147 146 138 140 137 130 120 121 128 125 127
185 181 180 183 187 198 193 194 199 206 210 202 207 209 213 204 206 206 175 162 154 144 154 158 146 161 166 165 165 161 162 143 129 130 128 131 132 130 133 135 130 104 96
189 186 185 182 191 178 189 195 203 189 202 216 220 218 208 210 208 186 177 161 154 133 141 155 175 173 169 169 163 150 144 143 141 132 131 134 137 134 142 140 133 126 126